Location: Chełmce
(52.6141°N, 18.4479°E)
Time: 22:46:44
(UTC+02:00)

ISS - Visible Passes

Search period start: 25 September 2018 00:00
Search period end: 05 October 2018 00:00
Orbit: 403 x 408 km, 51.6° (Epoch: 26 September)

Date Brightness Start Highest point End Pass type
(mag) Time Alt. Az. Time Alt. Az. Time Alt. Az.
25 Sep -2.3 19:28:57 10° SSW 19:31:30 21° SSE 19:33:24 13° ESE visible
25 Sep -2.2 21:04:21 10° WSW 21:06:06 28° SW 21:06:06 28° SW visible
26 Sep -3.4 20:12:36 10° SW 20:15:47 46° SSE 20:16:23 40° SE visible
26 Sep -0.6 21:48:51 10° W 21:49:04 12° W 21:49:04 12° W visible
27 Sep -2.9 19:20:57 10° SW 19:23:59 34° SSE 19:26:35 13° E visible
27 Sep -2.7 20:56:57 10° WSW 20:59:16 41° WSW 20:59:16 41° WSW visible
28 Sep -3.8 20:05:05 10° WSW 20:08:22 64° SSE 20:09:23 39° ESE visible
28 Sep -0.8 21:41:30 10° W 21:42:03 14° W 21:42:03 14° W visible
29 Sep -3.4 19:13:16 10° WSW 19:16:29 51° SSE 19:19:26 12° E visible
29 Sep -3.0 20:49:35 10° W 20:52:07 49° WSW 20:52:07 49° WSW visible
30 Sep -3.9 19:57:39 10° W 20:00:57 75° S 20:02:08 36° E visible
30 Sep -0.9 21:34:07 10° W 21:34:48 15° W 21:34:48 15° W visible
01 Oct -3.7 19:05:44 10° WSW 19:09:01 68° S 19:12:07 11° E visible
01 Oct -3.1 20:42:09 10° W 20:44:47 50° WSW 20:44:47 50° WSW visible
02 Oct -3.8 19:50:12 10° W 19:53:30 75° S 19:54:46 34° ESE visible
02 Oct -0.9 21:26:43 10° W 21:27:26 15° W 21:27:26 15° W visible
03 Oct -3.8 18:58:13 10° W 19:01:32 77° S 19:04:44 11° E visible
03 Oct -2.9 20:34:42 10° W 20:37:24 44° SW 20:37:24 44° SW visible
04 Oct -3.6 19:42:42 10° W 19:45:59 62° SSW 19:47:23 30° ESE visible
04 Oct -0.8 21:19:26 10° W 21:20:03 13° WSW 21:20:03 13° WSW visible
